GSAT-9

Last updated on Oct. 1, 2020, 5:42 a.m. UTC

1 42695U 17024A   20274.60084264 -.00000301  00000-0  00000-0 0  9990
2 42695   0.0302 247.4440 0001892 303.0924 132.8849  1.00271936 12398
UTC
Height (km)
Latitude
Longitude
Inclination
Orbital Period
UTC large
Height (km)
Speed (km/s)
/
Latitude / Longitude
Inclination (degrees)
Orbital Period (minutes)
Azimuth
Elevation
Range (km)
Doppler Factor
iOS Compass Heading
iOS Angle

Next 30 passes for location: Hong Kong

Rise time Rise Azimuth (degrees) Set time Set Azimuth (degrees) Duration Max altitude (degrees)

No matching passes for this satellites